Location: Stara Lesna
(49.1528°N, 20.2911°E)
Time: 07:55:04
(UTC+02:00)

Cosmos 841 Rocket - Pass Details

Date: 21 September 2019
Orbit: 746 x 773 km, 74.0° (Epoch: 20 October)

Event Time Altitude Azimuth Distance (km) Brightness Sun altitude
Exits shadow 02:59:11 48° 8° (N) 995 4.2 -30.8°
Drops below altitude 10° 03:02:58 10° 21° (NNE) 2,306 6.7 -30.4°
Sets 03:05:22 0° 23° (NNE) 3,240 7.7 -30.1°
